User: anonymous   Login
Location: St Andrew
(49.4460°N, 2.5750°W)
Time: 07:59:38
(UTC+01:00)
Language:

Iridium 66 - Orbit

View from above orbital plane
View from above orbital plane
View from above satellite
View from above satellite

Ground track
Ground track

The orbit data is extracted from the following two-line orbital elements,

1 25289U 98021E   15184.48253028  .00000013  00000-0 -22975-5 0  9992
2 25289 086.3977 162.5363 0002308 089.9995 023.2606 14.34215014902573
Epoch (UTC): 03 July 2015 11:34:50
Eccentricity: 0.0002308
inclination: 86.3977°
perigee height: 776 km
apogee height: 779 km
right ascension of ascending node: 162.5363°
argument of perigee: 89.9995°
revolutions per day: 14.34215014
mean anomaly at epoch: 23.2606°
orbit number at epoch: 90257

The dashed part of the orbit path shows where the satellite is in the earth's shadow,  

DLR